[[{"header":{"parameterUnit":"m.s-1","parameterCategory":1,"la1":30.2991,"la2":30.254,"lo1":-89.0895,"lo2":-89.0444,"dy":0.0017,"dx":0.0017,"nx":28,"ny":28,"refTime":"2023-09-03T21:00:00:Z","depth":0,"parameterNumber":2,"parameterNumberName":"U-component_of_WINDS"},"data":[0,0,0,0,0,0,0,0,0,0,0,0,0,0,0,0,0,0,0,0,0,0,0,0,0,0,0,0,0,0,0,0,0,0,0,0,0,0,0,0,0,0,0,0,0,0,0,0,0,0,0,0,0,0,0,0,0,0,-3.7743,-3.7744,0,-3.777,-3.777,-3.777,-3.7725,-3.7724,-3.7722,-3.7721,-3.7747,-3.7749,-3.7751,0,0,0,0,0,0,0,0,0,0,0,0,0,-3.7654,-3.7655,-3.7743,-3.7744,-3.7744,-3.777,-3.777,-3.777,-3.7726,-3.7724,-3.7722,-3.772,-3.7746,-3.7749,-3.7751,0,0,0,0,0,0,0,0,0,0,0,0,0,-3.7688,-3.7656,-3.7743,-3.7725,-3.7723,-3.777,-3.777,-3.7771,-3.7726,-3.7724,-3.7721,-3.7719,-3.7745,-3.7749,-3.7752,-3.7817,0,0,-3.7761,-3.7763,0,0,0,0,0,0,0,0,-3.7686,-3.7691,-3.7727,-3.7726,-3.7725,-3.7742,-3.7748,-3.7786,-3.7727,-3.7725,-3.7721,-3.7718,-3.7747,-3.775,-3.776,-3.7818,-3.7819,-3.7762,-3.7764,-3.7765,-3.7766,0,0,0,0,0,0,0,-3.7683,-3.769,-3.7754,-3.7728,-3.7726,-3.7715,-3.7717,-3.7755,-3.7749,-3.7725,-3.7722,-3.7726,-3.7746,-3.7757,-3.776,-3.782,-3.7762,-3.7764,-3.7766,-3.7768,-3.7932,-3.7934,0,0,0,0,0,0,-3.7683,-3.7688,-3.7753,-3.7755,-3.7699,-3.7718,-3.7721,-3.7739,-3.7748,-3.7747,-3.7727,-3.7723,-3.7753,-3.7757,-3.7761,-3.7837,-3.7765,-3.7768,-3.777,-3.793,-3.7933,-3.7935,0,0,0,0,0,0,-3.7682,-3.769,-3.7752,-3.772,-3.7727,-3.7722,-3.7743,-3.774,-3.7751,-3.775,-3.7748,-3.774,-3.7751,-3.7756,-3.7803,-3.7837,-3.7769,-3.7772,-3.7927,-3.7931,-3.7934,-3.799,0,0,0,0,0,0,-3.7679,-3.7689,-3.7714,-3.7721,-3.7729,-3.7794,-3.7745,-3.7743,-3.7757,-3.7752,-3.7761,-3.776,-3.775,-3.7799,-3.7806,-3.784,-3.7775,-3.7924,-3.7928,-3.7933,-3.7985,-3.7995,-3.8003,0,0,0,0,0,-3.7676,-3.7729,-3.7716,-3.7724,-3.776,-3.7796,-3.7801,-3.7787,-3.776,-3.7785,-3.7784,-3.776,-3.7833,-3.7804,-3.7812,-3.7847,-3.7921,-3.7927,-3.7932,-3.798,-3.7993,-3.8003,0,0,0,0,0,0,-3.7725,-3.7729,-3.7715,-3.7771,-3.7784,-3.7788,-3.7819,-3.7801,-3.7821,-3.7815,-3.7798,-3.78,-3.785,-3.7854,-3.7822,-3.7911,-3.7872,-3.788,-3.7906,-3.7918,-3.7927,-3.7924,-3.7777,0,0,0,0,0,-3.7743,-3.7772,-3.7774,-3.7824,-3.7831,-3.7824,-3.7839,-3.7828,-3.784,-3.7845,-3.7847,-3.786,-3.7885,-3.7902,-3.7925,-3.7986,-3.7987,-3.8014,-3.8024,-3.8031,-3.8037,-3.8068,-3.808,-3.7954,-3.7953,-3.7953,0,0,-3.7779,-3.7785,-3.7804,-3.7834,-3.7842,-3.7871,-3.7829,-3.7862,-3.7884,-3.785,-3.7893,-3.7896,-3.7909,-3.7962,-3.7986,-3.7967,-3.8073,-3.8038,-3.8045,-3.8046,-3.8075,-3.8087,-3.8098,-3.7957,-3.7957,-3.7956,0,0,-3.786,-3.7868,-3.7909,-3.7919,-3.7932,-3.7927,-3.7938,-3.7945,-3.7945,-3.799,-3.7964,-3.799,-3.8035,-3.8044,-3.8055,-3.8141,-3.8119,-3.8149,-3.8197,-3.8227,-3.8237,-3.8246,-3.8274,-3.8285,-3.8155,-3.8156,-3.8156,0,-3.7902,-3.7946,-3.7933,-3.7968,-3.7981,-3.7953,-3.7994,-3.8004,-3.8024,-3.8034,-3.8013,-3.8067,-3.8074,-3.8129,-3.815,-3.816,-3.817,-3.8146,-3.8237,-3.8245,-3.8253,-3.828,-3.8291,-3.8159,-3.8159,-3.8158,-3.8158,0,-3.7998,-3.8029,-3.8061,-3.8081,-3.8098,-3.8137,-3.8128,-3.8148,-3.8136,-3.8133,-3.8178,-3.8185,-3.8209,-3.8222,-3.8211,-3.8275,-3.8263,-3.824,-3.82,-3.8269,-3.8294,-3.8304,-3.8164,-3.8163,-3.8162,-3.8161,0,0,-3.8108,-3.8121,-3.8133,-3.8141,-3.8154,-3.8177,-3.8215,-3.8238,-3.8254,-3.827,-3.83,-3.8339,-3.8317,-3.833,-3.8319,-3.8346,-3.8412,-3.832,-3.832,-3.8335,-3.8481,-3.8497,-3.8509,-3.8399,-3.8401,-3.8402,-3.848,0,-3.8186,-3.825,-3.8239,-3.83,-3.8328,-3.8302,-3.8334,-3.8346,-3.8345,-3.8369,-3.8368,-3.8395,-3.8366,-3.8373,-3.8399,-3.8398,-3.844,-3.8393,-3.8425,-3.8426,-3.842,-3.8523,-3.8539,-3.8612,-3.849,-3.8491,-3.8493,0,-3.8286,-3.8305,-3.8369,-3.8377,-3.8388,-3.8418,-3.8438,-3.8461,-3.8474,-3.8471,-3.8486,-3.847,-3.8507,-3.8469,-3.8519,-3.8487,-3.8499,-3.8501,-3.8504,-3.8504,-3.8462,-3.8524,-3.8635,-3.8645,-3.8508,-3.8507,-3.8506,0,-3.8357,-3.8399,-3.8443,-3.8451,-3.8462,-3.8483,-3.8489,-3.8499,-3.8514,-3.8532,-3.8541,-3.8564,-3.8576,-3.8594,-3.8585,-3.8558,-3.8635,-3.8597,-3.8633,-3.8633,-3.8648,-3.8647,-3.8761,-3.8661,-3.8661,-3.8661,-3.866,0,-3.8444,-3.8484,-3.8475,-3.8501,-3.8545,-3.8532,-3.8576,-3.8579,-3.8588,-3.8614,-3.8594,-3.8619,-3.8607,-3.8631,-3.8625,-3.8666,-3.8672,-3.8671,-3.8668,-3.8671,-3.8671,-3.8677,-3.8671,-3.8663,-3.8663,-3.8662,-3.8662,0,-3.853,-3.8526,-3.8571,-3.8578,-3.8581,-3.8613,-3.8619,-3.8643,-3.8642,-3.8675,-3.8682,-3.8679,-3.8707,-3.8701,-3.8731,-3.8726,-3.8778,-3.877,-3.8773,-3.877,-3.8806,-3.8802,-3.8926,-3.8941,-3.8833,-3.8834,-3.8835,0,-3.8585,-3.8615,-3.8626,-3.8642,-3.8649,-3.8675,-3.869,-3.868,-3.8696,-3.8713,-3.8735,-3.8761,-3.8781,-3.8826,-3.8826,-3.8849,-3.884,-3.8883,-3.8844,-3.8846,-3.8839,-3.8836,-3.8838,-3.8889,-3.8891,-3.8892,-3.8892,0,-3.8682,-3.8679,-3.8701,-3.8723,-3.8741,-3.8758,-3.8773,-3.8787,-3.8778,-3.8797,-3.8825,-3.8841,-3.8872,-3.8897,-3.8918,-3.8924,-3.8906,-3.8905,-3.8914,-3.8916,-3.8916,-3.8915,-3.8792,-3.8902,-3.8901,-3.89,-3.89,-3.8899,-3.8753,-3.8778,-3.8789,-3.8814,-3.8825,-3.8839,-3.8862,-3.8863,-3.8886,-3.891,-3.8903,-3.8935,-3.8946,-3.8973,-3.8981,-3.9006,-3.899,-3.9003,-3.9006,-3.9009,-3.9013,-3.8915,-3.901,-3.9009,-3.9009,-3.9009,-3.9009,0,-3.8847,-3.8853,-3.8877,-3.8898,-3.8918,-3.8901,-3.8917,-3.8934,-3.8962,-3.8975,-3.8995,-3.9026,-3.9051,-3.9054,-3.9077,-3.9096,-3.9089,-3.9102,-3.91,-3.9101,-3.9027,-3.9015,-3.9108,-3.9108,-3.9108,-3.9108,-3.9108,-3.9108,-3.8898,-3.8939,-3.8937,-3.8982,-3.8988,-3.9019,-3.9029,-3.9042,-3.9051,-3.9088,-3.9108,-3.911,-3.9119,-3.9142,-3.9164,-3.9164,-3.9173,-3.9189,-3.9186,-3.9116,-3.9106,-3.9097,-3.9086,-3.9192,-3.9192,-3.9258,-3.9259,-3.9259]},{"header":{"parameterUnit":"m.s-1","parameterCategory":1,"la1":30.2991,"la2":30.254,"lo1":-89.0895,"lo2":-89.0444,"dy":0.0017,"dx":0.0017,"nx":28,"ny":28,"refTime":"2023-09-03T21:00:00:Z","depth":0,"parameterNumber":3,"parameterNumberName":"V-component_of_WINDS"},"data":[0,0,0,0,0,0,0,0,0,0,0,0,0,0,0,0,0,0,0,0,0,0,0,0,0,0,0,0,0,0,0,0,0,0,0,0,0,0,0,0,0,0,0,0,0,0,0,0,0,0,0,0,0,0,0,0,0,0,3.911,3.911,0,3.9115,3.9115,3.9115,3.9068,3.9067,3.9066,3.9065,3.9069,3.907,3.9072,0,0,0,0,0,0,0,0,0,0,0,0,0,3.9059,3.906,3.911,3.911,3.911,3.9115,3.9115,3.9115,3.9069,3.9067,3.9065,3.9064,3.9068,3.907,3.9072,0,0,0,0,0,0,0,0,0,0,0,0,0,3.9074,3.906,3.911,3.9087,3.9085,3.9115,3.9115,3.9115,3.9069,3.9067,3.9065,3.9063,3.9068,3.907,3.9072,3.9123,0,0,3.9078,3.9079,0,0,0,0,0,0,0,0,3.9073,3.9076,3.9091,3.9089,3.9087,3.9089,3.9099,3.9118,3.9069,3.9075,3.9064,3.9062,3.9077,3.9078,3.9084,3.9123,3.9124,3.9078,3.9079,3.908,3.9081,0,0,0,0,0,0,0,3.9072,3.9076,3.9112,3.9091,3.9089,3.9077,3.9077,3.9102,3.9087,3.9075,3.9071,3.9072,3.9076,3.9082,3.9083,3.9124,3.9078,3.908,3.9081,3.9082,3.9205,3.9207,0,0,0,0,0,0,3.9074,3.9075,3.9112,3.9112,3.9075,3.9079,3.9079,3.909,3.9087,3.9084,3.9074,3.907,3.9079,3.9081,3.9083,3.9142,3.908,3.9082,3.9083,3.9203,3.9206,3.9208,0,0,0,0,0,0,3.9074,3.9078,3.9112,3.9093,3.9096,3.9082,3.9095,3.9092,3.9097,3.9086,3.9083,3.9083,3.9078,3.908,3.9114,3.9142,3.9083,3.9085,3.9201,3.9204,3.9207,3.9261,0,0,0,0,0,0,3.9072,3.9078,3.9098,3.9094,3.9097,3.9142,3.9097,3.9093,3.9101,3.9096,3.9094,3.9092,3.9076,3.9111,3.9116,3.9143,3.9086,3.9198,3.9202,3.9206,3.9257,3.9266,3.9273,0,0,0,0,0,3.9071,3.9113,3.9099,3.9104,3.9121,3.9144,3.9146,3.9128,3.9104,3.9123,3.9116,3.9092,3.9138,3.9115,3.9119,3.9148,3.9196,3.9201,3.9206,3.9253,3.9264,3.9273,0,0,0,0,0,0,3.912,3.9112,3.9096,3.9138,3.9142,3.9136,3.916,3.914,3.9151,3.9146,3.9123,3.9123,3.9159,3.9157,3.9131,3.9198,3.9163,3.9169,3.9197,3.9208,3.9216,3.9215,3.9088,0,0,0,0,0,3.9136,3.9155,3.9147,3.9185,3.9188,3.9174,3.9183,3.9169,3.9171,3.9173,3.9168,3.9172,3.9187,3.9197,3.9211,3.9257,3.9255,3.9279,3.9288,3.9294,3.9299,3.9322,3.9333,3.9223,3.9223,3.9223,0,0,3.9169,3.9167,3.918,3.9195,3.9196,3.9216,3.9175,3.9198,3.9212,3.9176,3.9207,3.9204,3.9206,3.9246,3.9263,3.9245,3.9329,3.93,3.9306,3.9307,3.9328,3.9339,3.9348,3.9227,3.9226,3.9225,0,0,3.9238,3.9239,3.927,3.9273,3.9275,3.9266,3.9274,3.927,3.9267,3.9298,3.927,3.9287,3.9315,3.9317,3.9322,3.9394,3.9371,3.9399,3.9442,3.9465,3.9473,3.9481,3.9505,3.9514,3.9404,3.9404,3.9404,0,3.9278,3.9308,3.9289,3.9313,3.932,3.9289,3.932,3.9323,3.933,3.9336,3.9316,3.9349,3.9349,3.9388,3.9406,3.9411,3.9418,3.9398,3.9474,3.9481,3.9488,3.951,3.952,3.9407,3.9407,3.9407,3.9406,0,3.9356,3.9377,3.9402,3.941,3.942,3.9448,3.9433,3.9445,3.943,3.9423,3.9454,3.9453,3.9465,3.9474,3.946,3.9511,3.95,3.9478,3.9442,3.9502,3.9522,3.9531,3.9412,3.9411,3.941,3.9409,0,0,3.9456,3.9453,3.9462,3.9465,3.9466,3.9482,3.9508,3.9521,3.9531,3.9538,3.9559,3.9583,3.9562,3.9568,3.9554,3.9574,3.9629,3.9549,3.9549,3.9563,3.9685,3.97,3.9711,3.9616,3.9617,3.9619,3.9684,0,3.9522,3.9567,3.9551,3.9597,3.9615,3.9587,3.9609,3.9613,3.9607,3.9621,3.9615,3.9631,3.9603,3.9606,3.9626,3.9619,3.9653,3.9614,3.9634,3.9635,3.9632,3.9722,3.9739,3.9801,3.9692,3.9694,3.9695,0,3.9606,3.9615,3.9663,3.9661,3.9668,3.9689,3.9699,3.9714,3.9716,3.971,3.9717,3.9699,3.9724,3.969,3.9725,3.9698,3.9706,3.9704,3.9706,3.9705,3.9667,3.9723,3.982,3.9829,3.9708,3.9707,3.9706,0,3.9672,3.9697,3.9728,3.9732,3.973,3.9746,3.9746,3.9747,3.9755,3.9764,3.9769,3.9781,3.9787,3.9797,3.9782,3.9759,3.9818,3.9783,3.9813,3.9814,3.9825,3.9825,3.9924,3.9833,3.9833,3.9833,3.9833,0,3.9747,3.9777,3.9758,3.9777,3.981,3.9791,3.9824,3.9821,3.9822,3.984,3.9816,3.9833,3.9814,3.9829,3.9818,3.9847,3.9851,3.9846,3.9843,3.9847,3.9848,3.9851,3.9845,3.9835,3.9835,3.9834,3.9834,0,3.9825,3.9814,3.9846,3.9842,3.9842,3.9866,3.9863,3.988,3.9873,3.9896,3.99,3.9889,3.9905,3.9892,3.9909,3.9901,3.994,3.9931,3.9939,3.9936,3.9966,3.9963,4.0069,4.0082,3.9985,3.9986,3.9986,0,3.9873,3.9896,3.9894,3.9905,3.9906,3.9923,3.9932,3.9915,3.9925,3.993,3.9947,3.9961,3.9972,4.0,3.9993,4.0006,3.9996,4.0032,3.9997,4.0001,3.9995,3.9993,3.9995,4.0039,4.004,4.0041,4.0042,0,3.9959,3.9952,3.9966,3.9977,3.9988,3.9997,4.0003,4.0013,3.9996,4.0008,4.0025,4.0033,4.005,4.0065,4.0075,4.0075,4.0055,4.0053,4.006,4.0065,4.0068,4.0065,3.9956,4.005,4.0049,4.0049,4.0048,4.0048,4.0023,4.0041,4.0043,4.0058,4.0061,4.0068,4.0084,4.0079,4.0093,4.0105,4.0095,4.0115,4.0117,4.0129,4.0131,4.0146,4.0131,4.0142,4.0144,4.0147,4.0151,4.0067,4.0148,4.0148,4.0147,4.0147,4.0147,0,4.0106,4.0106,4.0121,4.013,4.0143,4.0124,4.013,4.0141,4.016,4.0163,4.0175,4.0194,4.0208,4.0203,4.0215,4.0229,4.022,4.0232,4.023,4.023,4.0164,4.0156,4.0239,4.0239,4.0239,4.0239,4.0239,4.0239,4.0151,4.018,4.0174,4.0205,4.0204,4.0224,4.0229,4.0235,4.0238,4.026,4.0272,4.0269,4.0269,4.0281,4.0293,4.0291,4.0296,4.0312,4.0306,4.0244,4.0235,4.0226,4.0218,4.0313,4.0313,4.0371,4.0371,4.0372]}]]